When you browse on this site, cookies collect data to enhance your experience and personalize the content and advertising you see.
Visit our Privacy Policy to learn more. By continuing to use the site, you agree to this use of cookies and data.
  • In Austria
  • List of Countries
  • For 7 days
  • Water Temperature
  • Satellite Maps
  • Weather Map
  • News
  • Weather Widgets
  • user-avatar
    Login

    Hourly Weather Council Bluffs

    Today, 21 April, Sunday

    Time Temperature Precipitation Wind Pressure Humidity
    00:00 +19°C° 0 mm 5 mps 728 mmHg 67%
    01:00 +17°C° 0 mm 5 mps 727 mmHg 68%
    02:00 +17°C° 0 mm 5 mps 727 mmHg 70%
    03:00 +16°C° 0 mm 5 mps 727 mmHg 72%
    04:00 +16°C° 0 mm 5 mps 727 mmHg 72%
    05:00 +15°C° 0 mm 5 mps 727 mmHg 72%
    06:00 +15°C° 0 mm 5 mps 727 mmHg 72%
    07:00 +17°C° 0 mm 6 mps 727 mmHg 68%
    08:00 +19°C° 0 mm 6 mps 728 mmHg 63%
    09:00 +21°C° 0 mm 6 mps 728 mmHg 58%
    10:00 +22°C° 0 mm 6 mps 728 mmHg 56%
    11:00 +23°C° 0 mm 6 mps 727 mmHg 55%
    12:00 +24°C° 0 mm 7 mps 727 mmHg 53%
    13:00 +26°C° 0 mm 7 mps 727 mmHg 51%
    14:00 +27°C° 0 mm 8 mps 727 mmHg 49%
    15:00 +28°C° 0 mm 8 mps 727 mmHg 47%
    16:00 +28°C° 0 mm 7 mps 726 mmHg 51%
    17:00 +27°C° 0 mm 6 mps 726 mmHg 54%
    18:00 +26°C° 0 mm 5 mps 726 mmHg 58%
    19:00 +25°C° 0.8 mm 5 mps 726 mmHg 64%
    20:00 +23°C° 0.8 mm 5 mps 726 mmHg 70%
    21:00 +21°C° 0.8 mm 5 mps 726 mmHg 75%
    22:00 +21°C° 1.3 mm 5 mps 727 mmHg 77%
    23:00 +21°C° 1.3 mm 6 mps 727 mmHg 79%

    Tomorrow, 22 April, Monday

    Time Temperature Precipitation Wind Pressure Humidity
    00:00 +20°C° 1.3 mm 6 mps 727 mmHg 81%
    01:00 +20°C° 0.1 mm 6 mps 727 mmHg 83%
    02:00 +20°C° 0.1 mm 6 mps 727 mmHg 85%
    03:00 +20°C° 0.1 mm 5 mps 727 mmHg 87%
    04:00 +19°C° 0.3 mm 4 mps 727 mmHg 89%
    05:00 +19°C° 0.3 mm 4 mps 727 mmHg 92%
    06:00 +18°C° 0.3 mm 3 mps 727 mmHg 94%
    07:00 +18°C° 0.1 mm 3 mps 728 mmHg 92%
    08:00 +18°C° 0.1 mm 4 mps 729 mmHg 90%
    09:00 +19°C° 0.1 mm 5 mps 729 mmHg 88%
    10:00 +16°C° 0.2 mm 6 mps 730 mmHg 87%
    11:00 +15°C° 0.2 mm 7 mps 730 mmHg 85%
    12:00 +12°C° 0.2 mm 8 mps 731 mmHg 83%
    13:00 +14°C° 0.2 mm 7 mps 731 mmHg 81%
    14:00 +14°C° 0.2 mm 7 mps 732 mmHg 79%
    15:00 +14°C° 0.2 mm 6 mps 732 mmHg 77%
    16:00 +14°C° 0 mm 7 mps 733 mmHg 76%
    17:00 +14°C° 0 mm 7 mps 734 mmHg 75%
    18:00 +14°C° 0 mm 7 mps 734 mmHg 73%
    19:00 +12°C° 0 mm 7 mps 735 mmHg 75%
    20:00 +11°C° 0 mm 6 mps 736 mmHg 76%
    21:00 +10°C° 0 mm 5 mps 736 mmHg 77%
    22:00 +10°C° 0 mm 4 mps 737 mmHg 79%
    23:00 +9°C° 0 mm 3 mps 737 mmHg 80%

    Day after tomorrow, 23 April, Tuesday

    Time Temperature Precipitation Wind Pressure Humidity
    00:00 +9°C° 0 mm 3 mps 737 mmHg 82%
    01:00 +9°C° 0 mm 3 mps 737 mmHg 82%
    02:00 +8°C° 0 mm 3 mps 737 mmHg 82%
    03:00 +7°C° 0 mm 4 mps 737 mmHg 82%
    04:00 +7°C° 0 mm 4 mps 737 mmHg 80%
    05:00 +6°C° 0 mm 5 mps 737 mmHg 77%
    06:00 +6°C° 0 mm 5 mps 738 mmHg 75%
    07:00 +7°C° 0 mm 5 mps 738 mmHg 68%
    08:00 +9°C° 0 mm 5 mps 738 mmHg 61%
    09:00 +10°C° 0 mm 6 mps 738 mmHg 55%
    10:00 +12°C° 0 mm 5 mps 738 mmHg 49%
    11:00 +14°C° 0 mm 5 mps 738 mmHg 43%
    12:00 +16°C° 0 mm 5 mps 738 mmHg 38%
    13:00 +17°C° 0 mm 4 mps 738 mmHg 36%
    14:00 +18°C° 0 mm 4 mps 737 mmHg 35%
    15:00 +18°C° 0 mm 3 mps 737 mmHg 33%
    16:00 +18°C° 0 mm 3 mps 737 mmHg 36%
    17:00 +17°C° 0 mm 3 mps 736 mmHg 40%
    18:00 +17°C° 0 mm 2 mps 736 mmHg 43%
    19:00 +16°C° 0 mm 2 mps 736 mmHg 46%
    20:00 +14°C° 0 mm 2 mps 736 mmHg 49%
    21:00 +13°C° 0 mm 2 mps 737 mmHg 52%
    22:00 +12°C° 0 mm 1 mps 737 mmHg 54%
    23:00 +12°C° 0 mm 1 mps 737 mmHg 56%

    24 April, Wednesday

    Time Temperature Precipitation Wind Pressure Humidity
    00:00 +11°C° 0 mm 1 mps 737 mmHg 58%
    01:00 +11°C° 0 mm 1 mps 737 mmHg 60%
    02:00 +10°C° 0 mm 1 mps 736 mmHg 62%
    03:00 +10°C° 0 mm 1 mps 736 mmHg 64%
    04:00 +9°C° 0 mm 1 mps 736 mmHg 66%
    05:00 +9°C° 0 mm 1 mps 736 mmHg 67%
    06:00 +9°C° 0 mm 1 mps 736 mmHg 69%
    07:00 +11°C° 0 mm 1 mps 736 mmHg 64%
    08:00 +13°C° 0 mm 1 mps 736 mmHg 58%
    09:00 +15°C° 0 mm 1 mps 736 mmHg 53%
    10:00 +16°C° 0 mm 1 mps 736 mmHg 48%
    11:00 +19°C° 0 mm 1 mps 736 mmHg 43%
    12:00 +21°C° 0 mm 1 mps 735 mmHg 37%
    13:00 +21°C° 0 mm 1 mps 735 mmHg 35%
    14:00 +22°C° 0 mm 1 mps 734 mmHg 33%
    15:00 +22°C° 0 mm 1 mps 733 mmHg 31%
    16:00 +22°C° 0 mm 1 mps 733 mmHg 34%
    17:00 +22°C° 0 mm 1 mps 733 mmHg 36%
    18:00 +21°C° 0 mm 1 mps 733 mmHg 38%
    19:00 +20°C° 0 mm 1 mps 733 mmHg 41%
    20:00 +18°C° 0 mm 1 mps 733 mmHg 43%
    21:00 +16°C° 0 mm 1 mps 733 mmHg 46%
    22:00 +15°C° 0 mm 1 mps 733 mmHg 49%
    23:00 +14°C° 0 mm 2 mps 733 mmHg 51%

    25 April, Thursday

    Time Temperature Precipitation Wind Pressure Humidity
    00:00 +14°C° 0 mm 2 mps 733 mmHg 54%
    01:00 +13°C° 0 mm 2 mps 732 mmHg 61%
    02:00 +13°C° 0 mm 2 mps 732 mmHg 67%
    03:00 +12°C° 0 mm 2 mps 732 mmHg 74%
    04:00 +12°C° 0 mm 2 mps 732 mmHg 74%
    05:00 +12°C° 0 mm 2 mps 733 mmHg 74%
    06:00 +12°C° 0 mm 2 mps 733 mmHg 74%
    07:00 +14°C° 0 mm 2 mps 733 mmHg 65%
    08:00 +16°C° 0 mm 2 mps 734 mmHg 56%
    09:00 +19°C° 0 mm 2 mps 734 mmHg 46%
    10:00 +21°C° 0 mm 3 mps 734 mmHg 45%
    11:00 +23°C° 0 mm 4 mps 734 mmHg 43%
    12:00 +25°C° 0 mm 5 mps 735 mmHg 41%
    13:00 +25°C° 0 mm 5 mps 735 mmHg 40%
    14:00 +25°C° 0 mm 5 mps 735 mmHg 38%
    15:00 +26°C° 0 mm 5 mps 735 mmHg 36%
    16:00 +25°C° 0 mm 4 mps 735 mmHg 38%
    17:00 +23°C° 0 mm 4 mps 735 mmHg 39%
    18:00 +24°C° 0 mm 3 mps 735 mmHg 41%
    19:00 +21°C° 0 mm 3 mps 736 mmHg 43%
    20:00 +19°C° 0 mm 3 mps 737 mmHg 46%
    21:00 +17°C° 0 mm 3 mps 737 mmHg 49%
    22:00 +16°C° 0 mm 2 mps 737 mmHg 49%
    23:00 +15°C° 0 mm 2 mps 738 mmHg 49%

    26 April, Friday

    Time Temperature Precipitation Wind Pressure Humidity
    00:00 +14°C° 0 mm 2 mps 738 mmHg 49%
    01:00 +14°C° 0 mm 2 mps 738 mmHg 48%
    02:00 +13°C° 0 mm 2 mps 738 mmHg 47%
    03:00 +13°C° 0 mm 1 mps 738 mmHg 46%
    04:00 +12°C° 0 mm 1 mps 738 mmHg 46%
    05:00 +12°C° 0 mm 1 mps 738 mmHg 47%
    06:00 +12°C° 0 mm 1 mps 739 mmHg 48%
    07:00 +14°C° 0 mm 1 mps 739 mmHg 43%
    08:00 +16°C° 0 mm 2 mps 739 mmHg 39%
    09:00 +18°C° 0 mm 2 mps 740 mmHg 35%
    10:00 +20°C° 0 mm 2 mps 739 mmHg 31%
    11:00 +21°C° 0 mm 2 mps 739 mmHg 28%
    12:00 +24°C° 0 mm 3 mps 739 mmHg 25%
    13:00 +24°C° 0 mm 3 mps 739 mmHg 26%
    14:00 +24°C° 0 mm 3 mps 738 mmHg 26%
    15:00 +25°C° 0 mm 3 mps 738 mmHg 27%
    16:00 +24°C° 0 mm 3 mps 737 mmHg 31%
    17:00 +23°C° 0 mm 4 mps 737 mmHg 34%
    18:00 +23°C° 0 mm 4 mps 737 mmHg 38%
    19:00 +21°C° 0 mm 4 mps 736 mmHg 42%
    20:00 +20°C° 0 mm 4 mps 736 mmHg 47%
    21:00 +18°C° 0 mm 4 mps 736 mmHg 51%
    22:00 +17°C° 0 mm 5 mps 736 mmHg 53%
    23:00 +17°C° 0 mm 6 mps 735 mmHg 54%
    Show more